Date String (YYYY-MM-DD hh:mm:ss) UTC,Instrument flags,Ambient pressure (hPa),Sample flow (lpm),Bypass flow (lpm),Sample temperature (°C),Ambient temperature (°C),ASC tube jacket temperature (°C),LED temperature (°C),Box temperature (°C),Sample RH (%),Span deviation,Mass concentration (μg/m³),Mass concentration (μg/m³),Mass concentration (μg/m³)
DateTimeUTC,F1_M11,P_M11,Q1_M11,Q2_M11,T1_M11,T2_M11,T3_M11,T4_M11,T5_M11,U1_M11,ZSPAN_M11,X2_M11,X0_M11,X1_M11
2023-02-26 01:00:00,,0822.4,4.98,0.00,23.2,21.6,00.0,31.9,24.9,15.1,0000.0,0005.58,0009.43,0004.95
2023-02-26 01:01:00,,0822.4,4.98,0.00,23.2,21.6,00.0,31.9,25.0,15.1,0000.0,0005.52,0009.79,0004.89
2023-02-26 01:02:00,,0822.4,5.01,0.00,23.2,21.6,00.0,31.9,25.0,14.8,0000.0,0005.46,0010.11,0004.84
2023-02-26 01:03:00,,0822.4,5.01,0.00,23.2,21.6,00.0,31.9,25.0,14.9,0000.0,0005.36,0009.74,0004.78
2023-02-26 01:04:00,,0822.4,5.01,0.00,23.2,21.6,00.0,31.9,25.0,15.0,0000.0,0005.30,0010.03,0004.72
2023-02-26 01:05:00,,0822.5,5.00,0.00,23.2,21.7,00.0,31.9,25.0,14.7,0000.0,0005.21,0010.13,0004.63
2023-02-26 01:06:00,,0822.5,4.97,0.00,23.2,21.7,00.0,31.9,25.0,14.7,0000.0,0005.11,0010.22,0004.55
2023-02-26 01:07:00,,0822.5,4.98,0.00,23.2,21.7,00.0,31.9,25.0,14.6,0000.0,0005.03,0010.13,0004.48
2023-02-26 01:08:00,,0822.5,5.00,0.00,23.2,21.7,00.0,31.9,25.0,14.4,0000.0,0004.94,0010.00,0004.40
2023-02-26 01:09:00,,0822.5,5.00,0.00,23.2,21.7,00.0,31.9,25.0,14.3,0000.0,0004.84,0009.87,0004.34
2023-02-26 01:10:00,,0822.5,4.98,0.00,23.2,21.8,00.0,32.0,25.0,14.5,0000.0,0004.78,0009.53,0004.29
2023-02-26 01:11:00,,0822.5,5.01,0.00,23.2,21.8,00.0,32.0,25.0,14.8,0000.0,0004.78,0009.75,0004.27
2023-02-26 01:12:00,,0822.5,5.01,0.00,23.2,21.8,00.0,32.0,25.1,14.9,0000.0,0004.80,0009.76,0004.27
2023-02-26 01:13:00,,0822.6,5.00,0.00,23.3,21.9,00.0,32.0,25.1,14.8,0000.0,0004.81,0009.12,0004.28
2023-02-26 01:14:00,,0822.6,5.00,0.00,23.3,21.9,00.0,32.0,25.1,14.8,0000.0,0004.82,0009.20,0004.29
2023-02-26 01:15:00,,0822.6,4.99,0.00,23.3,21.9,00.0,32.0,25.1,14.8,0000.0,0004.81,0009.39,0004.28
2023-02-26 01:16:00,,0822.6,5.01,0.00,23.3,21.9,00.0,32.0,25.1,14.8,0000.0,0004.81,0010.08,0004.30
2023-02-26 01:17:00,,0822.6,5.00,0.00,23.3,22.0,00.0,32.0,25.1,14.7,0000.0,0004.87,0010.70,0004.35
2023-02-26 01:18:00,,0822.6,4.99,0.00,23.3,22.0,00.0,32.0,25.1,14.7,0000.0,0004.87,0010.76,0004.35
2023-02-26 01:19:00,,0822.6,5.00,0.00,23.3,22.0,00.0,32.0,25.1,14.9,0000.0,0004.92,0010.79,0004.40
2023-02-26 01:20:00,,0822.6,4.99,0.00,23.3,22.0,00.0,32.0,25.1,14.8,0000.0,0005.00,0010.97,0004.45
2023-02-26 01:21:00,,0822.6,5.00,0.00,23.3,22.0,00.0,32.0,25.2,14.6,0000.0,0005.08,0011.14,0004.49
2023-02-26 01:22:00,,0822.6,4.99,0.00,23.3,22.0,00.0,32.0,25.2,14.4,0000.0,0005.05,0010.81,0004.49
2023-02-26 01:23:00,,0822.5,4.99,0.00,23.3,22.0,00.0,32.0,25.2,14.3,0000.0,0004.98,0010.51,0004.43
2023-02-26 01:24:00,,0822.5,4.99,0.00,23.4,22.0,00.0,32.0,25.2,14.0,0000.0,0004.90,0010.57,0004.33
2023-02-26 01:25:00,,0822.5,5.00,0.00,23.3,22.0,00.0,32.1,25.2,14.0,0000.0,0004.76,0010.58,0004.22
2023-02-26 01:26:00,,0822.5,5.01,0.00,23.4,22.0,00.0,32.1,25.2,13.9,0000.0,0004.69,0010.68,0004.11
2023-02-26 01:27:00,,0822.5,4.98,0.00,23.4,22.0,00.0,32.1,25.2,14.0,0000.0,0004.60,0010.29,0004.00
2023-02-26 01:28:00,,0822.4,5.02,0.00,23.4,21.9,00.0,32.1,25.2,14.0,0000.0,0004.48,0010.14,0003.87
2023-02-26 01:29:00,,0822.4,5.00,0.00,23.4,21.9,00.0,32.1,25.2,14.1,0000.0,0004.40,0010.03,0003.78
2023-02-26 01:30:00,,0822.4,4.96,0.00,23.4,21.9,00.0,32.1,25.2,14.1,0000.0,0004.34,0010.67,0003.66
2023-02-26 01:31:00,,0822.4,4.97,0.00,23.4,21.9,00.0,32.1,25.2,14.1,0000.0,0004.22,0010.58,0003.55
2023-02-26 01:32:00,,0822.4,5.01,0.00,23.4,21.9,00.0,32.1,25.1,14.1,0000.0,0004.10,0010.40,0003.45
2023-02-26 01:33:00,,0822.4,5.00,0.00,23.4,21.8,00.0,32.1,25.1,14.1,0000.0,0004.08,0010.82,0003.39
2023-02-26 01:34:00,,0822.4,5.00,0.00,23.3,21.7,00.0,32.1,25.1,14.1,0000.0,0004.05,0011.12,0003.35
2023-02-26 01:35:00,,0822.4,5.00,0.00,23.3,21.7,00.0,32.1,25.1,14.2,0000.0,0004.03,0010.96,0003.35
2023-02-26 01:36:00,,0822.4,5.00,0.00,23.3,21.6,00.0,32.1,25.1,14.2,0000.0,0004.12,0010.96,0003.36
2023-02-26 01:37:00,,0822.4,5.01,0.00,23.3,21.6,00.0,32.1,25.0,14.3,0000.0,0004.18,0010.61,0003.38
2023-02-26 01:38:00,,0822.5,5.01,0.00,23.3,21.5,00.0,32.0,25.0,14.3,0000.0,0004.21,0011.11,0003.40
2023-02-26 01:39:00,,0822.4,5.01,0.00,23.3,21.5,00.0,32.0,25.0,14.3,0000.0,0004.21,0010.69,0003.40
2023-02-26 01:40:00,,0822.5,5.01,0.00,23.3,21.4,00.0,32.0,25.0,14.3,0000.0,0004.22,0010.91,0003.41
2023-02-26 01:41:00,,0822.4,5.01,0.00,23.3,21.5,00.0,32.0,25.0,14.3,0000.0,0004.20,0010.31,0003.41
2023-02-26 01:42:00,,0822.4,4.99,0.00,23.3,21.4,00.0,32.0,25.0,14.2,0000.0,0004.22,0010.25,0003.42
2023-02-26 01:43:00,,0822.4,5.00,0.00,23.2,21.5,00.0,32.0,25.0,14.3,0000.0,0004.23,0010.27,0003.43
2023-02-26 01:44:00,,0822.4,5.00,0.00,23.2,21.5,00.0,32.0,25.0,14.3,0000.0,0004.23,0010.16,0003.42
2023-02-26 01:45:00,,0822.4,5.00,0.00,23.2,21.6,00.0,32.0,25.0,14.3,0000.0,0004.19,0009.64,0003.42
2023-02-26 01:46:00,,0822.4,5.01,0.00,23.2,21.6,00.0,32.0,25.0,14.3,0000.0,0004.18,0009.60,0003.41
2023-02-26 01:47:00,,0822.4,4.99,0.00,23.2,21.6,00.0,32.0,25.0,14.4,0000.0,0004.15,0009.91,0003.41
2023-02-26 01:48:00,,0822.4,4.99,0.00,23.2,21.6,00.0,32.0,25.0,14.4,0000.0,0004.08,0009.75,0003.41
2023-02-26 01:49:00,,0822.4,5.01,0.00,23.2,21.7,00.0,32.0,25.0,14.4,0000.0,0004.05,0009.12,0003.40
2023-02-26 01:50:00,,0822.4,5.00,0.00,23.2,21.7,00.0,32.0,25.0,14.4,0000.0,0004.06,0008.54,0003.41
2023-02-26 01:51:00,,0822.4,5.00,0.00,23.2,21.6,00.0,32.0,25.0,14.4,0000.0,0004.06,0008.23,0003.42
2023-02-26 01:52:00,,0822.4,5.00,0.00,23.2,21.7,00.0,32.0,25.0,14.4,0000.0,0004.08,0008.25,0003.43
2023-02-26 01:53:00,,0822.4,5.00,0.00,23.2,21.7,00.0,32.0,25.0,14.4,0000.0,0004.07,0008.36,0003.43
2023-02-26 01:54:00,,0822.4,5.01,0.00,23.2,21.7,00.0,32.0,25.0,14.4,0000.0,0004.09,0008.91,0003.44
2023-02-26 01:55:00,,0822.4,5.00,0.00,23.2,21.7,00.0,32.0,25.0,14.6,0000.0,0004.10,0009.15,0003.47
2023-02-26 01:56:00,,0822.4,5.01,0.00,23.3,21.7,00.0,32.0,25.0,14.6,0000.0,0004.16,0009.70,0003.51
2023-02-26 01:57:00,,0822.4,4.98,0.00,23.3,21.7,00.0,32.0,25.1,14.7,0000.0,0004.20,0009.84,0003.56
2023-02-26 01:58:00,,0822.4,4.99,0.00,23.3,21.7,00.0,32.0,25.1,14.6,0000.0,0004.20,0009.47,0003.59
2023-02-26 01:59:00,,0822.4,4.99,0.00,23.3,21.7,00.0,32.0,25.0,14.7,0000.0,0004.25,0010.33,0003.62
